Wind_Speed
40 39 37 37 37 37 37 37 39 41 42 43 45 46 47 46 45 45 44 45 47 49 50 50 50 49 48 46 44 42 41 43 46 48 50 50 50 50 49 48 48 48 48 47 43 43 45 45 45 45 45 47 48 46 48 51 51 48 45 43 41 40 38 36 35 35 34 34 34 35 35 34 33 33
40 38 36 35 36 36 37 39 41 42 44 45 47 49 50 51 51 49 47 46 47 48 50 52 53 53 53 52 51 49 46 44 45 47 50 53 53 53 52 52 52 51 51 49 47 47 48 49 50 50 47 48 50 50 50 52 50 47 45 44 43 42 40 39 38 38 36 36 35 36 36 37 36 35
38 36 34 34 35 37 39 41 43 45 46 48 49 51 52 53 55 55 54 52 50 50 50 51 53 54 54 54 55 55 53 50 49 49 50 52 54 55 55 55 56 55 54 53 52 53 54 53 52 52 52 50 51 53 54 52 49 46 47 47 45 44 42 41 41 40 39 38 37 37 36 36 37 38
35 33 33 34 38 42 44 46 48 50 50 51 52 53 53 54 56 58 59 59 58 55 53 51 51 52 53 55 55 57 57 56 54 54 54 54 54 56 58 59 59 58 58 58 58 58 60 59 54 51 53 54 54 54 54 54 53 51 51 49 46 44 42 42 43 43 42 42 40 39 37 36 37 39
34 33 34 38 43 46 49 51 52 54 55 56 55 55 55 56 57 59 61 62 61 58 55 51 49 48 49 51 53 55 56 57 57 56 57 58 58 57 57 60 61 61 60 61 62 62 62 65 64 57 54 56 58 58 56 55 54 54 55 53 49 46 44 45 46 45 45 45 44 43 42 41 40 39
33 34 38 43 46 49 51 53 55 57 58 58 58 58 58 59 59 59 59 58 58 57 54 50 48 46 46 47 49 52 54 55 56 56 57 59 61 60 59 59 61 63 64 64 65 66 65 66 68 68 63 60 59 59 58 57 55 54 53 51 50 48 47 47 49 49 47 46 46 47 46 45 44 41
35 38 42 46 48 50 53 55 58 59 59 60 60 61 61 60 58 57 55 53 53 54 53 51 49 47 46 46 48 51 53 54 55 56 56 58 60 61 61 61 60 63 66 67 67 69 70 69 69 71 72 69 65 62 61 61 61 60 58 54 51 51 51 51 51 52 51 49 48 48 48 48 47 45
38 41 45 48 51 53 55 58 60 61 62 63 63 61 59 57 55 53 51 51 51 52 53 53 52 50 48 48 49 51 54 55 56 57 57 58 59 59 60 61 61 62 65 69 71 72 74 74 73 72 74 75 73 69 66 65 67 67 65 62 59 56 55 56 56 55 53 51 50 50 50 51 51 49
41 45 48 51 54 56 58 60 61 63 64 64 62 59 56 54 52 51 51 51 52 52 53 53 54 53 52 50 50 51 53 55 57 58 59 59 60 59 58 59 61 62 64 68 73 76 77 77 77 76 75 76 78 77 73 71 71 71 70 69 67 64 62 61 61 60 56 53 52 53 53 54 53 52
43 48 51 54 56 58 60 62 63 64 64 62 59 57 55 54 53 53 54 54 54 54 54 54 54 54 54 53 52 52 53 54 56 58 59 60 61 61 60 59 60 62 64 67 73 77 79 79 79 79 78 78 80 82 81 78 75 74 74 74 73 71 69 67 66 66 64 59 56 55 56 55 54 53
46 51 53 56 59 61 62 63 65 64 62 59 57 56 56 57 58 58 58 57 57 56 56 55 55 55 55 55 54 54 53 54 55 57 58 59 60 61 61 61 61 62 64 67 70 75 79 80 80 80 81 81 82 85 87 85 82 80 77 76 76 76 74 72 71 70 68 65 61 58 58 57 56 56
49 53 56 58 60 62 63 64 65 62 59 57 57 58 60 61 61 61 60 59 59 57 56 56 55 55 54 54 54 54 54 54 55 56 57 57 58 59 61 62 64 65 65 67 69 72 76 81 82 82 83 84 85 86 88 88 89 88 82 79 78 78 77 76 74 73 71 68 65 63 61 60 59 60
51 54 57 59 61 62 64 63 61 58 56 57 58 61 62 63 63 62 61 60 58 57 55 53 52 51 51 51 50 50 50 50 51 52 54 55 55 56 59 62 64 66 67 68 70 71 74 78 83 84 84 85 87 88 88 89 90 90 87 85 84 82 81 80 79 78 76 74 73 72 71 69 67 66
52 55 57 59 61 62 62 60 56 54 55 57 59 61 62 62 62 61 59 57 55 53 50 48 46 45 44 43 43 43 43 43 44 46 48 50 52 54 56 60 63 65 67 69 71 73 73 76 80 84 86 86 88 90 91 91 90 89 88 89 89 88 87 86 85 84 83 82 81 80 79 77 74 73
53 56 58 59 60 61 58 55 53 53 55 57 58 59 59 59 58 56 54 52 49 46 44 41 40 38 37 36 36 36 36 36 37 39 41 43 46 49 53 57 61 64 66 69 72 75 75 75 78 82 86 87 88 89 91 93 92 91 90 91 92 93 92 91 90 89 88 87 86 84 82 80 79 77
53 55 58 59 59 57 54 52 51 53 55 56 56 56 56 55 53 51 48 45 43 40 39 37 35 33 32 31 31 30 31 31 32 33 35 38 40 43 47 51 56 61 64 68 71 75 77 77 78 79 83 87 89 90 91 92 94 94 93 92 93 94 94 93 92 92 90 89 89 87 86 84 83 82
53 55 57 57 55 53 51 50 50 52 54 54 53 52 52 51 49 46 44 41 39 37 34 33 32 30 29 28 28 27 27 27 28 29 30 33 35 38 41 45 50 55 60 65 69 73 76 78 79 80 81 84 88 90 91 91 93 94 94 94 94 94 94 94 94 94 93 92 91 90 90 89 87 86
53 54 54 52 51 50 49 49 49 51 52 51 50 51 51 49 46 44 42 40 38 36 33 31 30 28 27 27 26 25 25 25 25 25 27 29 31 33 36 40 44 49 54 60 65 70 74 78 81 82 82 83 85 88 90 91 92 92 93 94 95 95 95 95 95 96 95 95 94 93 92 92 91 90
51 50 49 49 48 47 47 48 49 51 50 49 49 51 51 49 47 45 43 41 39 37 34 32 29 28 26 25 23 23 22 22 22 23 24 25 27 30 32 35 39 43 48 53 59 64 70 75 79 83 84 84 84 85 87 90 91 92 92 93 94 95 96 97 97 97 97 97 96 95 94 94 93 92
47 46 45 46 45 45 45 46 48 50 49 48 49 52 53 51 49 48 46 44 42 39 36 33 30 28 26 23 21 20 19 19 19 20 21 22 24 26 29 32 35 39 43 48 53 58 63 69 75 80 83 85 85 85 86 88 90 92 93 94 94 95 96 96 97 98 97 97 97 96 96 95 94 93
42 42 42 43 43 44 44 44 47 49 48 48 50 52 54 54 53 51 49 47 45 42 39 36 32 30 27 24 21 19 17 16 16 17 18 19 21 23 26 29 32 35 39 43 47 52 56 62 68 74 79 83 86 87 87 87 88 89 92 93 94 95 94 94 95 96 96 96 96 96 96 96 95 94
39 40 40 41 42 42 42 43 46 48 48 48 51 53 54 55 55 54 52 50 48 46 44 40 37 33 31 28 24 21 17 15 13 13 14 16 17 19 22 25 28 32 35 39 43 47 50 55 60 66 72 77 82 86 88 88 88 88 89 90 92 93 93 93 94 95 95 95 95 95 96 96 95 94
39 39 39 39 40 40 41 43 46 47 48 49 51 53 55 57 57 57 56 54 52 50 48 45 42 38 34 32 29 25 21 17 15 13 12 12 13 15 18 21 24 28 32 36 39 42 45 49 53 58 63 69 75 80 84 87 88 89 89 89 90 90 91 92 93 94 95 95 95 95 94 95 94 94
38 38 38 39 39 39 39 42 45 46 47 49 51 53 56 57 58 59 58 57 55 54 52 50 47 43 39 35 33 30 26 22 19 16 14 12 11 11 13 16 20 24 28 32 36 39 41 44 48 52 56 61 66 71 76 80 84 87 89 89 90 90 91 91 93 94 95 95 95 94 94 94 94 94
38 37 38 39 38 37 38 41 44 46 47 49 51 53 55 57 58 59 60 59 58 57 55 54 52 49 45 40 36 32 29 25 22 19 15 12 10 9 10 12 15 19 23 28 32 35 38 41 44 47 50 54 58 62 66 71 75 79 82 85 87 89 90 92 94 95 95 95 95 94 94 94 94 94
37 37 37 38 37 36 38 41 43 46 47 49 51 53 55 57 58 59 60 60 59 59 58 57 56 54 51 46 41 35 31 28 24 21 18 15 12 11 10 9 11 14 17 22 26 30 34 37 40 43 45 48 51 55 58 62 66 69 73 76 79 82 86 89 93 94 95 95 95 94 93 94 94 94
37 36 36 37 36 36 37 40 42 45 47 48 50 53 55 56 58 58 59 60 60 60 59 59 58 57 55 52 46 40 34 30 27 23 20 18 15 13 11 10 10 11 13 16 19 23 27 31 35 38 40 43 45 48 51 54 58 61 64 67 70 73 77 81 85 87 89 91 91 91 92 92 93 94
36 35 36 36 36 35 36 39 41 43 46 47 49 51 53 55 56 57 58 59 60 60 60 60 60 59 58 56 52 46 39 33 29 25 21 18 17 15 13 11 10 10 12 13 14 16 20 24 28 31 34 37 40 43 46 49 51 54 56 59 62 65 68 72 75 77 80 82 84 84 86 87 89 90
36 35 35 36 36 35 35 37 39 42 44 46 48 50 52 53 54 55 56 58 59 59 60 60 61 61 60 59 57 52 45 38 32 28 23 19 16 15 14 13 11 9 9 11 12 13 15 18 21 24 27 30 33 36 40 43 46 48 50 52 55 58 61 64 67 70 72 74 75 77 78 79 81 83
35 34 34 35 35 35 35 36 38 40 42 45 46 48 50 51 52 54 55 56 58 59 60 60 61 61 62 61 60 57 52 43 36 31 26 21 17 15 13 12 11 9 8 8 10 11 13 14 17 19 21 24 26 29 32 36 39 42 45 47 50 52 55 57 60 62 64 66 67 69 71 72 74 76
35 34 33 34 35 34 34 35 36 39 41 43 44 46 48 49 51 52 53 54 56 57 59 60 61 61 62 62 61 60 57 50 41 34 29 24 19 16 13 11 9 9 8 6 6 8 10 12 14 16 18 20 22 24 27 29 32 35 38 41 44 47 50 52 55 57 58 60 61 63 64 66 68 69
34 34 34 33 34 34 34 34 35 38 39 41 42 44 46 47 49 50 51 53 54 56 57 58 60 61 61 62 62 61 59 55 47 38 32 27 22 17 13 11 9 7 7 5 4 4 6 8 11 13 15 17 19 21 23 25 27 28 31 33 36 39 42 46 49 51 53 55 56 57 59 61 62 64
34 35 35 34 34 34 35 35 35 36 38 39 40 42 44 46 47 49 50 51 53 54 55 57 58 59 60 61 62 62 61 58 53 44 36 30 25 19 15 12 10 8 7 5 3 1 2 5 8 10 13 15 17 18 20 22 23 24 25 27 29 32 34 37 40 42 45 47 49 50 52 54 56 58
34 36 36 36 35 35 35 36 35 35 36 37 38 40 42 44 46 48 49 50 51 53 54 55 56 58 59 61 61 62 62 60 56 49 40 33 27 21 16 13 11 9 7 6 4 3 2 1 3 6 8 10 12 14 15 17 19 20 22 23 25 27 29 31 33 35 36 38 40 42 44 46 48 50
34 35 36 36 36 36 36 36 35 35 35 35 37 38 40 42 44 46 47 48 49 51 52 53 55 56 58 60 61 61 61 61 59 54 45 36 29 23 18 15 12 10 8 6 4 3 3 3 3 3 4 5 7 8 9 10 12 14 17 19 20 22 24 26 28 30 31 32 34 35 37 39 40 42
33 34 34 35 36 36 36 36 36 35 35 35 35 37 38 40 42 44 45 46 47 49 50 52 53 55 57 58 59 60 61 61 60 57 50 41 32 24 19 15 13 11 8 6 4 2 3 3 3 4 4 3 3 4 5 6 7 8 11 14 16 17 18 20 22 25 26 27 28 29 30 31 32 33
32 33 34 34 35 36 37 37 37 36 35 35 35 36 37 39 40 42 43 44 45 47 49 50 52 54 55 57 58 60 60 61 60 58 54 46 36 27 20 16 13 11 9 7 5 3 3 4 4 4 5 4 4 4 4 4 3 3 5 7 10 12 13 14 16 19 21 22 23 24 24 25 25 26
32 32 33 34 34 34 36 37 37 37 36 36 36 36 36 38 39 41 42 43 44 46 47 48 50 52 54 55 57 59 60 60 60 59 56 50 41 31 22 16 13 11 9 7 6 5 5 5 5 5 5 6 6 6 6 6 5 4 4 4 5 7 9 11 12 14 16 18 19 20 20 20 20 21
34 33 33 33 33 33 34 35 36 37 37 37 36 36 36 36 38 39 41 43 44 44 45 46 48 50 52 54 56 57 59 60 60 60 57 52 44 34 25 17 12 10 9 7 7 7 7 6 6 6 6 7 7 7 7 7 7 7 7 7 7 7 6 7 9 11 13 14 16 17 17 18 18 19
35 35 34 33 33 33 33 33 34 35 37 38 38 37 36 36 37 38 39 41 43 43 44 45 46 48 50 52 54 56 58 59 60 60 58 54 47 38 27 18 12 9 7 7 7 7 7 7 6 7 7 8 8 8 8 7 7 8 8 8 9 10 9 9 8 7 8 9 11 13 14 15 16 17
34 35 34 33 33 33 32 32 32 33 35 36 37 38 38 37 37 37 38 39 41 42 42 43 45 46 48 50 52 54 56 58 59 59 59 56 50 41 30 20 12 7 5 5 6 7 8 7 7 8 9 9 10 11 11 10 9 9 10 10 10 10 10 10 10 10 9 8 8 8 9 11 12 14
33 34 34 34 33 33 32 32 32 32 33 33 35 37 37 37 37 37 36 37 39 40 41 42 43 44 46 48 51 53 55 57 58 59 59 57 52 43 33 22 12 5 3 4 5 7 8 8 8 9 9 10 11 12 12 11 11 11 11 12 12 11 10 10 10 10 10 9 8 8 8 8 8 9
34 34 34 33 33 33 33 32 32 32 32 31 32 34 36 37 37 37 37 36 37 38 40 41 41 42 44 46 48 51 53 55 57 58 58 57 53 46 36 24 13 5 2 3 5 6 8 9 9 8 8 9 10 11 11 11 11 11 12 13 13 13 12 12 11 11 10 9 8 8 7 7 7 8
33 34 34 34 33 33 33 33 32 32 32 31 31 32 34 35 36 37 37 36 36 36 38 39 40 40 42 43 46 49 51 53 55 56 57 57 54 48 39 27 15 5 2 4 5 6 7 8 7 7 7 8 9 10 10 10 11 11 12 12 13 13 12 12 12 11 11 10 9 8 7 6 6 6
33 33 33 34 33 33 33 33 33 33 32 32 31 32 32 33 35 35 36 37 36 35 35 37 38 39 40 41 43 46 49 51 53 55 56 57 55 50 42 31 19 8 3 5 6 7 7 7 7 6 6 7 8 8 9 9 10 10 10 10 10 10 10 9 9 9 8 8 7 7 6 6 5 5
Wind_Direction
312 310 310 313 317 320 320 320 319 317 315 314 311 309 307 305 302 300 298 296 294 293 293 292 290 289 287 284 280 275 270 265 260 256 253 249 245 242 239 235 233 229 226 226 228 228 228 227 228 230 231 234 235 234 233 233 232 231 233 236 237 237 236 236 237 238 239 239 238 238 238 237 236 237
311 310 313 317 319 320 320 319 318 315 313 312 311 308 306 305 303 300 297 294 293 292 291 289 288 286 285 283 281 278 273 268 263 259 254 251 247 244 241 238 235 232 227 226 225 223 222 222 224 226 226 229 233 233 234 236 237 236 238 239 239 237 236 237 237 237 239 240 240 240 240 238 237 235
311 312 316 318 319 320 321 320 319 318 316 314 311 308 306 305 304 302 299 295 293 290 289 287 285 283 281 279 278 276 274 270 266 262 258 253 249 245 242 239 237 234 230 227 226 222 218 217 219 221 221 225 231 235 237 239 239 238 240 241 239 238 237 237 237 237 238 239 239 240 241 241 239 236
313 314 315 316 318 320 321 321 321 320 318 315 311 308 306 305 304 303 301 299 296 293 290 286 283 280 278 276 274 273 271 269 265 262 260 257 252 247 243 239 237 235 233 231 229 227 222 218 216 216 216 220 226 231 236 240 239 236 238 240 239 238 239 241 242 242 242 241 239 239 240 240 239 237
313 312 313 316 319 320 321 321 320 318 316 313 311 309 307 305 304 304 303 301 299 296 292 288 283 278 275 274 272 270 269 267 264 261 258 257 255 250 245 241 237 235 234 232 232 231 227 222 218 215 213 215 220 224 228 232 234 235 238 240 240 239 240 242 244 246 246 245 244 242 241 240 239 238
311 311 314 318 320 320 320 319 318 316 314 312 311 310 309 309 307 306 303 301 298 295 292 288 283 278 274 271 270 269 267 266 264 261 257 254 253 252 248 243 238 235 233 232 231 232 231 228 222 218 215 214 217 221 222 224 227 231 234 237 239 240 239 238 240 243 246 247 247 246 244 243 241 241
311 313 317 320 320 320 319 317 316 315 314 313 313 313 312 310 308 305 302 298 296 294 291 288 284 280 276 273 270 268 267 265 263 261 258 254 251 250 249 246 240 236 233 231 230 230 231 231 227 222 219 217 217 219 220 221 225 229 230 230 232 234 235 235 238 240 240 242 244 245 244 243 243 242
312 316 320 321 321 319 317 316 317 316 316 316 315 314 313 310 307 304 301 298 295 293 292 289 287 284 280 276 272 268 266 265 263 261 259 257 254 250 248 246 243 238 233 231 230 229 229 229 229 226 222 220 219 218 218 219 223 227 229 228 227 228 230 232 234 236 237 237 237 239 241 240 239 239
314 319 322 321 320 318 317 317 318 317 317 318 317 316 314 311 308 306 303 301 299 296 294 292 290 288 284 280 275 271 267 265 263 261 259 257 256 253 249 245 243 240 235 231 230 229 228 228 228 227 224 222 221 220 218 218 220 223 225 225 224 223 225 228 230 233 234 233 231 232 235 236 236 237
316 321 322 320 319 318 318 318 318 319 320 321 320 318 317 315 313 311 309 306 304 301 299 295 292 289 286 283 279 274 270 266 263 260 259 257 255 253 251 246 243 240 237 233 231 229 229 229 228 227 226 223 222 222 220 219 219 221 223 223 222 221 222 224 227 230 231 231 228 228 231 232 233 234
318 321 320 319 318 318 318 319 320 322 324 324 323 322 321 319 317 315 313 311 308 305 302 298 294 290 287 283 280 276 272 268 264 261 259 256 254 252 251 248 244 240 237 235 232 230 229 229 228 228 227 225 224 223 223 222 221 221 222 222 222 222 221 222 225 228 230 230 230 230 230 231 230 231
318 320 319 318 318 319 320 321 324 326 327 327 326 325 323 321 319 318 316 313 310 307 303 300 296 292 288 284 280 277 273 269 266 262 259 256 253 250 249 247 244 240 237 235 233 231 229 229 229 228 227 226 225 225 226 226 226 224 223 222 222 222 222 222 224 226 228 230 232 232 233 234 235 235
317 318 318 318 319 320 322 325 328 329 330 330 328 326 324 323 321 319 317 314 312 308 305 301 297 294 290 286 282 278 274 270 267 263 260 256 252 249 246 244 242 240 237 235 234 232 230 228 228 228 227 227 226 226 227 228 229 228 225 224 224 224 223 222 223 226 229 232 234 236 238 240 241 241
317 317 317 318 320 322 325 328 330 332 332 331 329 327 326 324 322 320 318 316 313 310 307 304 301 297 294 290 285 281 276 271 266 262 259 255 251 247 244 241 240 238 236 234 233 232 231 229 228 227 228 227 227 227 227 228 229 230 228 226 226 228 229 228 227 229 231 233 236 238 240 242 243 243
317 318 319 320 323 325 328 331 334 334 334 332 331 329 328 326 324 323 321 319 317 316 313 310 307 303 299 294 289 284 278 272 267 262 258 254 250 246 242 240 238 236 235 233 232 231 231 230 228 227 227 227 228 228 228 228 229 229 230 229 228 230 232 233 234 234 235 236 237 239 240 241 243 244
318 319 321 323 326 328 331 335 337 336 335 334 334 333 332 331 330 328 327 326 325 324 321 318 314 310 305 299 293 288 281 275 269 264 259 254 250 246 242 239 237 235 233 231 230 230 230 230 229 228 227 227 227 228 228 229 229 229 230 231 231 231 232 234 236 236 237 238 238 240 241 241 242 243
320 322 323 326 328 331 334 338 338 337 337 337 338 339 339 338 337 337 337 336 335 332 329 325 321 317 311 305 299 292 286 279 272 266 260 255 251 247 242 239 237 235 232 231 230 229 229 229 229 229 229 228 227 227 228 229 229 230 230 231 232 232 233 234 235 236 237 237 238 239 241 241 242 243
322 324 326 328 331 334 337 339 339 339 339 340 343 346 347 346 346 347 347 347 345 341 337 333 328 323 317 311 305 299 292 285 277 269 262 256 252 248 243 239 237 235 233 231 229 228 228 228 228 229 229 229 229 228 228 229 229 230 231 231 232 233 233 234 235 236 237 237 238 239 240 241 241 242
325 327 329 331 334 337 340 340 340 341 342 345 350 353 354 354 355 357 357 357 355 352 347 342 336 330 324 317 311 304 297 290 282 274 266 258 252 248 245 240 237 235 234 232 230 228 227 227 227 228 229 229 230 229 229 229 229 230 231 232 232 233 233 234 235 236 237 238 238 238 239 240 241 241
328 331 333 334 337 339 340 341 342 344 346 350 355 359 0 1 3 4 5 4 3 0 356 351 345 339 333 326 320 313 305 296 288 280 272 263 255 249 245 241 237 235 234 233 231 229 228 228 228 228 228 229 230 230 230 230 230 230 231 232 232 233 234 235 236 236 237 238 239 239 240 240 241 241
333 335 336 337 339 340 341 342 345 347 350 354 359 2 4 6 7 8 10 10 9 7 4 1 355 349 343 339 334 327 318 308 297 288 278 269 261 253 247 242 239 236 234 234 233 231 229 228 228 228 228 229 230 230 231 231 231 231 231 232 233 234 235 236 237 237 238 239 239 240 240 241 241 241
337 338 338 339 340 341 342 345 348 351 353 357 1 4 6 8 9 10 11 12 12 12 10 8 4 358 353 349 347 343 337 328 317 304 290 278 268 259 251 244 240 237 235 234 234 233 231 230 229 229 229 229 229 230 231 232 232 232 232 233 233 234 235 236 237 238 238 239 239 240 241 241 241 242
340 340 340 341 341 342 344 348 351 354 356 360 3 5 7 9 10 11 12 13 14 14 14 12 10 6 0 356 354 352 350 347 341 330 315 297 280 266 256 248 242 238 236 235 234 234 233 232 231 230 230 230 230 230 231 232 233 233 234 234 235 235 235 236 237 238 239 239 239 240 241 241 242 242
343 342 342 342 342 344 346 350 353 356 358 1 3 6 7 9 10 11 12 13 14 15 15 15 14 11 7 2 358 356 354 353 350 345 335 320 302 282 265 254 246 240 237 236 235 234 233 232 232 231 231 231 231 231 232 232 233 234 235 235 236 236 236 237 238 239 239 240 240 240 240 241 242 242
345 344 343 342 343 345 347 352 355 357 359 2 4 6 7 8 9 10 11 12 13 14 15 16 16 14 12 8 3 359 355 353 352 348 343 336 326 310 288 266 252 243 239 237 235 235 234 233 232 231 231 231 232 232 232 233 233 234 235 235 236 237 237 238 239 240 240 240 241 240 240 241 242 242
347 345 343 343 344 346 350 354 356 358 0 2 4 5 7 8 9 9 10 10 12 13 15 16 16 16 15 12 8 3 358 354 353 351 348 346 343 333 316 293 270 253 243 238 236 235 234 234 233 232 231 231 231 232 232 233 233 234 235 235 236 237 237 238 239 240 241 242 242 242 242 242 243 243
347 345 344 344 345 347 351 355 357 359 1 2 3 5 6 6 7 8 9 9 10 12 13 15 16 16 16 15 12 8 2 358 356 354 352 349 347 341 331 315 293 272 256 244 238 235 234 234 234 233 231 230 230 231 232 232 233 233 234 234 235 236 237 239 240 241 242 243 244 244 244 244 245 245
346 345 344 345 347 348 352 356 358 359 1 2 3 4 5 5 6 7 7 8 9 10 12 14 15 15 16 15 14 12 7 2 358 357 355 351 347 343 336 328 311 286 268 257 246 238 234 233 233 232 231 230 229 230 230 231 232 232 233 233 234 235 236 237 239 240 241 243 243 244 244 245 245 245
346 345 345 347 348 349 352 356 358 359 1 2 2 3 3 4 5 5 6 7 7 9 10 12 14 15 15 15 14 13 11 6 0 358 359 357 352 345 340 334 324 303 277 262 253 243 236 233 232 231 230 229 229 229 230 231 231 232 232 232 232 233 234 235 237 239 240 241 242 243 243 244 244 245
346 346 346 349 350 349 351 354 357 359 1 1 1 1 1 2 3 4 5 6 6 7 9 11 12 13 14 14 14 14 13 10 4 359 359 1 359 352 345 338 330 319 297 270 255 246 239 234 231 230 229 228 228 228 229 230 230 231 231 231 231 232 233 234 235 237 238 239 241 241 242 242 243 244
347 347 348 350 351 349 349 352 356 359 1 1 0 360 360 1 2 3 4 5 5 6 7 9 11 12 13 13 13 13 13 12 9 2 359 2 4 360 352 344 335 326 315 293 264 246 239 235 233 232 231 230 229 229 229 230 230 230 230 230 231 231 232 233 234 235 236 237 238 239 240 241 242 242
349 349 349 350 350 350 350 351 355 359 1 0 359 358 359 360 0 1 3 4 4 5 6 8 9 11 12 12 12 12 12 13 11 6 1 0 4 4 357 351 347 340 330 317 291 252 235 231 231 232 232 231 231 232 232 232 233 233 233 232 232 232 232 232 233 234 235 235 236 237 238 239 240 241
350 350 349 349 350 351 352 353 355 358 359 359 358 357 358 359 359 0 2 3 3 4 5 7 8 9 11 12 12 11 11 12 12 10 4 360 1 4 3 358 357 355 349 342 335 303 242 226 225 226 228 230 231 232 233 234 235 235 236 236 235 234 234 233 232 233 233 233 234 235 236 237 238 239
349 350 350 349 350 352 354 354 355 355 357 358 358 357 357 358 358 359 1 2 1 2 4 5 7 8 9 10 11 11 10 11 12 11 8 2 359 0 2 2 3 4 360 356 6 30 50 164 198 206 213 219 223 227 231 233 234 234 234 235 235 235 235 235 234 233 233 233 232 232 233 233 234 235
345 348 349 349 350 351 353 354 354 354 353 355 357 358 358 357 357 359 0 0 0 1 2 4 6 7 8 9 9 10 10 10 10 11 10 6 1 358 358 0 5 9 6 1 9 43 62 81 122 152 172 188 197 206 214 220 225 228 230 231 233 234 235 235 234 233 232 232 231 231 230 230 230 231
340 342 345 347 348 349 350 352 354 354 352 352 354 356 358 357 358 358 359 359 359 360 1 3 4 6 7 8 8 9 9 9 9 10 10 8 3 359 356 357 3 9 11 5 4 37 70 76 91 107 113 126 153 170 181 190 201 213 220 225 229 232 234 234 231 228 227 227 227 226 226 227 228 228
337 339 341 343 345 347 348 350 352 353 352 352 352 353 355 357 358 359 358 358 359 360 0 2 3 5 6 6 6 7 8 8 8 9 9 8 5 1 356 355 360 7 14 13 6 20 53 62 71 87 95 98 102 110 117 128 142 171 200 213 218 222 225 226 224 221 221 221 221 220 221 223 225 226
333 335 336 338 341 343 345 347 348 349 351 352 352 352 353 354 356 358 358 358 358 359 360 1 3 4 5 5 5 6 7 7 7 8 8 8 6 2 357 354 357 5 14 20 22 28 41 48 54 67 81 93 101 101 102 103 105 112 130 160 185 199 207 211 211 212 213 214 215 216 218 219 220 222
326 328 330 332 335 338 341 342 343 345 348 351 353 352 351 351 353 356 357 358 358 358 359 1 3 3 3 4 4 4 5 6 7 7 7 7 6 4 359 354 355 4 15 27 36 42 45 48 52 61 73 85 93 95 98 102 104 106 110 118 126 137 155 176 189 198 204 209 212 213 214 215 216 219
321 322 324 326 329 331 334 336 339 342 345 348 350 352 352 351 351 353 355 357 357 357 358 0 3 3 2 3 3 3 4 5 6 6 6 6 6 5 1 355 352 0 17 32 44 54 59 58 59 64 71 77 80 80 81 85 92 95 98 102 105 106 111 121 134 150 172 192 204 209 210 213 216 219
319 321 322 324 325 326 328 331 334 338 341 344 346 349 350 351 351 351 352 354 356 357 357 360 2 2 1 2 2 2 3 5 5 5 5 6 6 6 3 358 353 357 21 45 59 69 77 79 77 76 79 81 81 79 76 75 79 85 90 93 96 99 103 109 114 118 125 140 158 176 190 200 208 214
320 321 322 323 324 326 327 328 330 333 337 340 342 344 347 349 350 350 350 352 354 356 357 359 0 1 1 1 1 2 3 4 4 5 5 5 6 6 5 2 357 357 28 65 82 92 95 94 90 85 85 87 87 84 81 78 78 80 85 88 91 94 99 103 107 110 112 117 127 138 149 163 178 191
322 322 322 323 324 325 326 327 328 330 332 335 338 341 343 345 347 349 349 350 351 354 356 358 358 359 0 1 1 1 2 3 4 4 5 5 6 7 7 5 3 6 66 96 100 106 106 101 94 90 90 90 89 87 86 84 82 82 84 86 88 89 91 92 93 94 95 97 103 111 121 135 152 164
323 323 323 323 323 324 325 326 327 328 328 330 334 337 339 341 343 346 348 349 349 352 355 356 356 357 359 0 1 1 2 2 3 4 5 6 7 8 9 8 7 16 111 129 122 117 115 113 112 112 106 98 94 91 90 90 91 91 90 89 89 88 87 87 87 88 90 93 95 99 104 113 125 138
323 323 323 323 323 323 324 324 325 326 326 326 329 332 335 337 339 342 344 347 348 349 352 354 354 355 357 359 1 1 1 2 3 4 5 6 7 9 11 12 11 18 96 136 137 135 133 136 139 134 119 105 98 95 94 94 96 93 89 84 80 77 76 75 77 79 82 85 89 92 95 100 105 113
Height
10876 10874 10872 10870 10867 10865 10862 10859 10857 10854 10851 10848 10845 10842 10840 10840 10840 10839 10839 10836 10832 10829 10826 10825 10824 10824 10823 10824 10825 10826 10826 10827 10826 10827 10829 10831 10834 10837 10839 10842 10844 10846 10849 10852 10854 10855 10858 10863 10865 10867 10869 10870 10871 10872 10871 10869 10871 10875 10877 10880 10882 10883 10884 10885 10885 10886 10887 10889 10890 10891 10892 10894 10896 10897
10872 10870 10868 10865 10863 10861 10858 10855 10853 10850 10846 10843 10839 10835 10832 10829 10829 10829 10830 10830 10827 10825 10822 10818 10816 10815 10814 10813 10813 10814 10816 10818 10818 10818 10819 10820 10823 10827 10829 10832 10834 10836 10840 10844 10846 10848 10852 10855 10858 10862 10864 10864 10864 10865 10864 10864 10867 10872 10874 10875 10877 10878 10878 10879 10879 10880 10883 10884 10885 10887 10888 10890 10892 10893
10868 10865 10863 10860 10858 10856 10854 10851 10848 10845 10842 10838 10834 10830 10826 10822 10818 10816 10816 10817 10818 10818 10816 10813 10809 10806 10805 10804 10803 10802 10803 10806 10808 10809 10809 10810 10813 10816 10818 10821 10823 10827 10831 10834 10836 10839 10842 10846 10850 10855 10858 10860 10859 10858 10859 10861 10863 10867 10867 10868 10870 10871 10873 10873 10873 10875 10878 10879 10881 10883 10885 10886 10888 10889
10864 10861 10859 10856 10854 10851 10849 10846 10843 10840 10837 10834 10830 10826 10821 10817 10812 10807 10803 10801 10802 10804 10804 10803 10801 10798 10795 10793 10792 10791 10791 10792 10795 10797 10798 10798 10801 10804 10807 10809 10812 10817 10821 10824 10826 10829 10833 10838 10842 10847 10851 10853 10852 10853 10855 10856 10857 10859 10860 10860 10863 10866 10868 10867 10866 10869 10872 10874 10877 10879 10880 10882 10883 10884
10860 10857 10855 10852 10849 10846 10842 10839 10837 10834 10831 10828 10824 10820 10816 10811 10807 10801 10796 10790 10787 10787 10789 10789 10789 10787 10785 10783 10780 10779 10779 10779 10781 10784 10786 10786 10788 10791 10794 10798 10802 10806 10810 10813 10816 10818 10823 10828 10833 10838 10841 10843 10844 10846 10848 10850 10851 10853 10853 10854 10856 10860 10862 10860 10859 10862 10866 10869 10872 10874 10875 10876 10877 10879
10857 10854 10851 10848 10845 10841 10837 10833 10830 10827 10823 10820 10816 10812 10808 10803 10798 10793 10788 10782 10776 10773 10773 10774 10775 10774 10774 10772 10770 10767 10767 10767 10767 10769 10772 10774 10775 10778 10781 10785 10790 10794 10798 10801 10804 10808 10812 10816 10822 10827 10831 10834 10837 10838 10841 10844 10846 10846 10847 10849 10850 10853 10855 10853 10853 10857 10860 10863 10866 10867 10868 10870 10871 10874
10853 10850 10847 10843 10839 10836 10832 10828 10824 10819 10815 10811 10808 10804 10799 10794 10788 10783 10778 10773 10767 10762 10760 10760 10761 10762 10762 10761 10760 10757 10755 10755 10755 10756 10758 10760 10762 10765 10768 10772 10777 10782 10786 10789 10792 10796 10799 10803 10809 10815 10820 10826 10828 10829 10832 10837 10837 10837 10839 10841 10843 10845 10847 10848 10849 10851 10854 10857 10858 10860 10862 10864 10866 10868
10848 10846 10842 10838 10834 10830 10826 10822 10817 10812 10807 10803 10799 10795 10790 10784 10779 10774 10769 10764 10759 10754 10749 10747 10746 10747 10749 10749 10748 10746 10744 10744 10744 10744 10745 10746 10748 10752 10756 10759 10763 10769 10774 10777 10780 10782 10785 10789 10795 10802 10809 10815 10817 10817 10821 10825 10826 10827 10829 10832 10835 10838 10841 10843 10844 10845 10847 10850 10852 10853 10855 10856 10858 10861
10844 10840 10836 10833 10829 10824 10820 10815 10810 10806 10801 10795 10790 10784 10779 10775 10770 10765 10760 10754 10749 10745 10741 10737 10734 10733 10734 10735 10735 10734 10733 10733 10732 10732 10732 10734 10735 10739 10743 10747 10751 10755 10760 10764 10766 10768 10771 10775 10781 10788 10796 10803 10807 10808 10809 10812 10814 10816 10818 10821 10826 10830 10834 10836 10837 10839 10842 10843 10843 10845 10846 10848 10850 10853
10840 10836 10831 10827 10823 10818 10814 10809 10804 10800 10794 10787 10781 10775 10769 10764 10759 10755 10749 10744 10739 10735 10731 10728 10724 10721 10720 10720 10720 10721 10721 10720 10720 10720 10720 10721 10723 10725 10730 10735 10739 10743 10747 10750 10753 10756 10760 10765 10770 10777 10784 10790 10795 10795 10795 10800 10805 10807 10808 10811 10815 10820 10824 10826 10829 10832 10834 10834 10835 10838 10840 10841 10843 10845
10835 10831 10827 10822 10817 10812 10808 10803 10797 10792 10786 10779 10773 10766 10760 10754 10749 10744 10739 10733 10728 10723 10719 10715 10712 10710 10708 10707 10706 10707 10707 10707 10707 10708 10708 10709 10711 10713 10717 10722 10726 10730 10733 10737 10740 10744 10749 10754 10759 10766 10772 10777 10780 10780 10783 10790 10795 10796 10799 10803 10806 10810 10813 10816 10819 10822 10825 10826 10828 10831 10833 10835 10836 10838
10831 10827 10822 10817 10812 10807 10802 10796 10791 10784 10778 10772 10765 10759 10752 10746 10740 10734 10728 10723 10717 10712 10707 10703 10700 10697 10695 10694 10693 10693 10694 10694 10694 10694 10695 10696 10699 10702 10704 10707 10712 10716 10721 10725 10728 10732 10737 10742 10747 10753 10759 10763 10767 10769 10772 10777 10780 10784 10791 10795 10797 10801 10804 10807 10810 10813 10816 10818 10821 10824 10826 10828 10830 10832
10827 10823 10818 10813 10807 10802 10797 10791 10786 10779 10773 10766 10760 10752 10745 10738 10732 10725 10718 10713 10707 10701 10697 10692 10688 10685 10683 10681 10680 10680 10680 10681 10681 10681 10682 10684 10686 10689 10692 10694 10697 10702 10708 10713 10716 10719 10725 10730 10734 10740 10746 10751 10754 10757 10761 10763 10766 10775 10784 10788 10789 10792 10795 10798 10801 10804 10806 10809 10812 10815 10818 10820 10823 10826
10823 10818 10813 10808 10803 10798 10793 10788 10782 10776 10769 10762 10755 10747 10739 10732 10724 10717 10710 10704 10698 10692 10687 10682 10678 10675 10672 10670 10669 10668 10668 10668 10668 10669 10670 10671 10674 10677 10679 10681 10684 10689 10695 10700 10704 10707 10712 10717 10722 10728 10733 10738 10742 10746 10749 10752 10756 10765 10772 10777 10781 10784 10787 10790 10793 10796 10798 10801 10804 10808 10811 10813 10815 10818
10818 10813 10807 10803 10798 10793 10789 10784 10778 10771 10765 10759 10751 10743 10735 10727 10719 10711 10704 10697 10690 10684 10679 10675 10671 10668 10665 10662 10660 10659 10658 10658 10658 10658 10659 10660 10662 10664 10667 10669 10672 10676 10682 10687 10691 10695 10699 10704 10710 10715 10721 10727 10731 10735 10739 10742 10747 10753 10759 10764 10769 10774 10777 10781 10785 10788 10791 10794 10797 10801 10803 10806 10808 10810
10813 10808 10802 10798 10793 10789 10784 10780 10774 10768 10761 10755 10747 10739 10730 10722 10714 10706 10698 10691 10685 10679 10674 10669 10665 10662 10659 10656 10654 10652 10651 10650 10650 10650 10650 10650 10652 10654 10656 10659 10661 10665 10670 10675 10679 10683 10688 10693 10698 10703 10709 10715 10720 10724 10728 10732 10736 10742 10747 10752 10757 10762 10766 10770 10773 10777 10781 10785 10788 10792 10795 10797 10800 10802
10808 10803 10798 10794 10790 10786 10781 10776 10771 10765 10758 10751 10744 10736 10727 10719 10710 10702 10694 10687 10681 10676 10671 10666 10662 10658 10654 10652 10649 10647 10646 10644 10644 10643 10643 10642 10643 10645 10647 10649 10652 10655 10659 10664 10668 10673 10678 10683 10687 10692 10697 10702 10708 10712 10717 10722 10726 10732 10737 10741 10746 10751 10756 10759 10762 10765 10769 10774 10777 10780 10783 10787 10791 10794
10804 10799 10794 10790 10786 10782 10777 10773 10768 10762 10756 10749 10742 10734 10725 10717 10708 10699 10691 10684 10678 10673 10668 10663 10659 10655 10651 10648 10646 10643 10641 10640 10638 10638 10637 10636 10636 10637 10639 10641 10643 10646 10649 10653 10657 10662 10668 10672 10676 10680 10685 10690 10696 10701 10707 10712 10717 10723 10728 10731 10735 10740 10744 10748 10750 10752 10756 10761 10766 10769 10772 10776 10780 10784
10800 10796 10791 10787 10783 10779 10774 10770 10765 10759 10753 10746 10739 10731 10723 10715 10706 10698 10690 10683 10676 10671 10666 10661 10657 10653 10649 10646 10643 10640 10638 10635 10634 10633 10632 10631 10631 10631 10632 10634 10636 10638 10640 10643 10648 10653 10658 10662 10666 10670 10675 10680 10685 10691 10697 10702 10707 10712 10717 10719 10723 10726 10729 10733 10737 10740 10743 10748 10753 10758 10762 10765 10769 10773
10797 10793 10788 10784 10780 10776 10772 10768 10763 10757 10751 10744 10737 10729 10722 10714 10705 10697 10689 10682 10676 10670 10665 10660 10656 10651 10647 10644 10641 10638 10635 10632 10630 10629 10628 10627 10627 10627 10627 10628 10629 10631 10632 10635 10639 10644 10649 10653 10656 10661 10666 10671 10675 10680 10685 10690 10695 10700 10704 10707 10710 10713 10717 10723 10728 10731 10735 10738 10742 10747 10751 10754 10758 10762
10794 10790 10786 10782 10778 10775 10771 10766 10761 10755 10749 10742 10735 10728 10721 10713 10705 10698 10690 10683 10676 10670 10665 10659 10655 10650 10646 10642 10639 10636 10633 10630 10628 10626 10624 10623 10623 10623 10623 10623 10624 10625 10626 10628 10631 10635 10640 10644 10648 10652 10657 10661 10666 10670 10674 10679 10684 10689 10693 10697 10700 10705 10710 10715 10718 10721 10725 10729 10732 10735 10739 10743 10747 10751
10792 10788 10785 10781 10777 10773 10769 10764 10759 10753 10747 10741 10734 10727 10720 10713 10706 10699 10692 10685 10677 10671 10665 10659 10654 10650 10645 10641 10637 10634 10631 10628 10625 10623 10621 10620 10619 10619 10619 10619 10620 10621 10622 10623 10624 10628 10632 10636 10639 10643 10647 10652 10656 10661 10665 10669 10673 10678 10683 10687 10691 10697 10701 10704 10706 10710 10714 10718 10721 10724 10728 10732 10737 10741
10790 10786 10782 10779 10775 10771 10767 10762 10757 10752 10746 10740 10733 10727 10720 10713 10706 10700 10693 10686 10679 10672 10666 10660 10655 10649 10645 10640 10636 10632 10629 10626 10623 10621 10619 10618 10617 10616 10616 10616 10616 10617 10617 10618 10619 10621 10624 10628 10632 10635 10639 10643 10647 10651 10655 10660 10664 10669 10673 10677 10683 10688 10692 10695 10697 10700 10702 10705 10710 10715 10718 10721 10726 10730
10788 10784 10780 10777 10773 10769 10765 10761 10756 10751 10745 10739 10733 10727 10720 10713 10707 10701 10694 10688 10681 10674 10668 10661 10655 10650 10645 10640 10636 10632 10628 10625 10622 10620 10618 10616 10615 10614 10613 10613 10613 10613 10613 10613 10614 10615 10618 10621 10624 10627 10631 10635 10638 10642 10646 10650 10655 10659 10663 10669 10674 10678 10682 10686 10687 10687 10689 10694 10700 10705 10709 10711 10714 10718
10786 10782 10779 10775 10772 10768 10764 10759 10754 10750 10744 10738 10732 10726 10720 10714 10708 10701 10695 10689 10683 10676 10669 10662 10656 10650 10645 10640 10635 10631 10627 10624 10621 10619 10617 10614 10613 10612 10611 10610 10610 10610 10609 10609 10610 10611 10613 10615 10617 10620 10624 10628 10631 10634 10638 10641 10646 10650 10654 10660 10665 10667 10671 10674 10674 10674 10679 10684 10688 10694 10698 10701 10703 10706
10784 10781 10777 10774 10770 10767 10762 10758 10753 10748 10743 10738 10732 10726 10720 10714 10708 10702 10697 10691 10684 10677 10671 10664 10657 10651 10646 10640 10636 10632 10628 10624 10621 10618 10615 10613 10611 10609 10609 10608 10607 10607 10606 10606 10607 10607 10608 10609 10611 10614 10618 10621 10624 10627 10630 10633 10637 10641 10645 10650 10654 10657 10659 10660 10660 10663 10669 10673 10676 10682 10687 10691 10694 10696
10783 10780 10777 10773 10769 10765 10761 10757 10752 10747 10742 10737 10731 10726 10720 10715 10709 10704 10698 10692 10686 10680 10673 10666 10660 10653 10647 10642 10637 10632 10628 10624 10620 10617 10614 10611 10609 10608 10607 10606 10605 10604 10604 10603 10604 10604 10605 10606 10607 10609 10612 10615 10618 10621 10623 10626 10629 10633 10636 10640 10644 10647 10649 10649 10651 10656 10660 10662 10666 10672 10676 10680 10683 10686
10783 10779 10776 10772 10768 10764 10760 10756 10752 10747 10742 10737 10731 10726 10721 10716 10710 10705 10700 10694 10688 10682 10676 10669 10662 10655 10649 10643 10638 10633 10628 10624 10620 10617 10614 10611 10608 10607 10605 10604 10604 10603 10602 10601 10601 10601 10602 10603 10604 10605 10607 10610 10613 10615 10617 10619 10622 10625 10629 10632 10635 10638 10640 10641 10643 10646 10649 10652 10657 10661 10665 10668 10671 10674
10782 10779 10775 10771 10767 10764 10760 10756 10752 10747 10742 10737 10731 10726 10722 10717 10712 10707 10701 10696 10690 10684 10678 10671 10664 10658 10651 10645 10639 10633 10628 10624 10620 10617 10614 10611 10608 10606 10604 10603 10602 10601 10600 10600 10599 10599 10600 10600 10601 10602 10603 10605 10608 10610 10612 10614 10616 10619 10622 10625 10627 10629 10632 10634 10635 10638 10640 10644 10647 10651 10655 10657 10659 10662
10781 10778 10774 10770 10766 10763 10759 10755 10751 10747 10742 10736 10731 10727 10722 10718 10713 10708 10703 10697 10692 10686 10680 10673 10666 10659 10653 10647 10641 10635 10629 10625 10620 10617 10614 10611 10608 10606 10604 10603 10602 10600 10599 10598 10598 10597 10598 10598 10598 10599 10600 10602 10603 10605 10607 10608 10610 10613 10615 10617 10620 10622 10624 10626 10628 10630 10633 10636 10639 10642 10645 10647 10649 10652
10780 10776 10773 10770 10766 10763 10759 10755 10751 10746 10741 10736 10732 10728 10723 10719 10714 10709 10704 10699 10693 10688 10681 10675 10668 10662 10655 10649 10643 10637 10631 10626 10621 10617 10614 10611 10609 10606 10604 10603 10602 10600 10599 10598 10597 10596 10596 10596 10597 10597 10598 10599 10600 10601 10602 10604 10605 10607 10609 10611 10613 10615 10617 10619 10621 10623 10626 10629 10631 10634 10635 10637 10640 10642
10779 10775 10772 10769 10766 10763 10759 10755 10750 10745 10741 10737 10733 10729 10725 10720 10715 10710 10705 10700 10695 10689 10683 10677 10671 10664 10658 10652 10645 10639 10633 10628 10623 10618 10614 10611 10609 10607 10605 10603 10602 10600 10599 10597 10596 10595 10595 10595 10595 10595 10596 10596 10597 10598 10599 10600 10601 10603 10605 10607 10608 10610 10612 10613 10615 10617 10619 10622 10624 10626 10628 10630 10632 10634
10778 10774 10771 10768 10765 10761 10757 10753 10749 10745 10741 10737 10734 10730 10725 10721 10716 10711 10706 10701 10696 10691 10685 10679 10673 10667 10661 10655 10648 10642 10636 10630 10624 10619 10615 10612 10609 10608 10605 10603 10602 10600 10599 10598 10596 10595 10594 10594 10593 10593 10594 10594 10594 10595 10596 10597 10598 10599 10601 10602 10603 10605 10606 10608 10610 10611 10613 10615 10618 10619 10621 10623 10625 10627
10777 10773 10770 10766 10763 10760 10756 10752 10748 10745 10742 10738 10734 10730 10726 10721 10717 10712 10707 10702 10697 10692 10686 10681 10675 10669 10663 10657 10651 10645 10638 10632 10627 10621 10617 10613 10610 10608 10606 10604 10602 10601 10599 10598 10597 10596 10595 10594 10593 10593 10592 10592 10593 10593 10593 10594 10595 10596 10597 10598 10599 10600 10601 10602 10604 10606 10608 10610 10612 10613 10615 10617 10619 10621
10775 10773 10769 10766 10762 10759 10755 10752 10748 10745 10742 10738 10734 10730 10726 10722 10718 10713 10708 10703 10698 10693 10688 10683 10677 10671 10665 10659 10654 10648 10642 10635 10629 10623 10618 10614 10611 10608 10606 10604 10602 10601 10600 10599 10597 10596 10595 10594 10593 10593 10592 10592 10592 10591 10591 10592 10592 10593 10593 10594 10595 10596 10597 10598 10599 10601 10602 10604 10606 10608 10610 10611 10613 10615
10775 10772 10769 10765 10762 10758 10755 10751 10748 10745 10741 10738 10734 10730 10726 10723 10718 10714 10709 10705 10700 10695 10690 10684 10678 10673 10667 10662 10656 10651 10645 10638 10631 10625 10620 10615 10612 10609 10607 10604 10603 10601 10600 10599 10598 10597 10596 10595 10594 10593 10593 10592 10592 10591 10591 10591 10591 10591 10591 10592 10592 10593 10594 10595 10596 10597 10598 10600 10601 10603 10605 10607 10609 10611
10774 10771 10768 10765 10761 10758 10754 10750 10747 10744 10741 10737 10733 10730 10726 10722 10718 10714 10710 10706 10701 10696 10691 10685 10680 10674 10669 10664 10659 10653 10647 10641 10634 10628 10622 10617 10612 10609 10607 10605 10603 10601 10600 10599 10598 10597 10596 10596 10595 10594 10594 10593 10592 10592 10591 10591 10590 10590 10590 10590 10591 10591 10592 10593 10594 10594 10596 10597 10599 10600 10602 10604 10606 10607
10772 10769 10766 10763 10761 10757 10754 10750 10747 10744 10740 10736 10732 10729 10725 10722 10718 10714 10710 10706 10702 10697 10692 10687 10681 10675 10671 10666 10661 10655 10649 10643 10637 10630 10624 10618 10613 10609 10607 10605 10603 10602 10600 10599 10598 10598 10597 10596 10595 10595 10594 10594 10593 10593 10592 10592 10591 10591 10590 10590 10590 10590 10591 10591 10592 10593 10594 10595 10596 10598 10600 10601 10603 10604
10770 10767 10765 10762 10759 10757 10754 10750 10747 10743 10739 10736 10732 10728 10725 10721 10718 10714 10710 10706 10702 10698 10694 10688 10682 10677 10672 10667 10662 10657 10651 10645 10639 10632 10626 10619 10614 10610 10607 10605 10604 10602 10601 10600 10599 10598 10597 10597 10596 10595 10595 10594 10594 10594 10593 10593 10593 10592 10591 10591 10591 10591 10591 10591 10591 10592 10593 10594 10595 10596 10597 10598 10600 10601
10767 10765 10763 10760 10758 10755 10753 10750 10747 10743 10738 10734 10731 10728 10724 10721 10717 10713 10710 10706 10702 10699 10694 10689 10684 10678 10674 10669 10664 10659 10653 10647 10641 10635 10628 10621 10615 10610 10607 10605 10604 10603 10602 10601 10600 10599 10598 10598 10597 10597 10596 10595 10595 10595 10594 10594 10594 10593 10593 10592 10592 10591 10591 10592 10592 10592 10593 10593 10594 10595 10596 10597 10598 10599
10765 10763 10760 10758 10756 10753 10751 10749 10746 10742 10738 10734 10730 10727 10724 10720 10717 10713 10710 10706 10703 10699 10695 10690 10685 10680 10675 10670 10666 10661 10655 10649 10643 10637 10630 10623 10617 10611 10607 10605 10604 10603 10602 10602 10601 10600 10599 10599 10598 10598 10597 10597 10596 10596 10596 10596 10595 10595 10594 10594 10593 10593 10593 10593 10593 10593 10594 10594 10595 10595 10596 10596 10597 10598
10763 10760 10758 10755 10753 10751 10749 10746 10744 10741 10738 10735 10731 10727 10724 10720 10717 10713 10709 10706 10703 10699 10695 10690 10686 10682 10677 10672 10667 10662 10657 10651 10645 10639 10633 10626 10619 10612 10608 10605 10604 10603 10603 10602 10602 10601 10601 10600 10600 10600 10600 10599 10598 10598 10598 10598 10597 10597 10596 10596 10596 10596 10596 10595 10595 10595 10595 10595 10596 10596 10596 10597 10597 10598
10760 10758 10755 10753 10751 10748 10746 10744 10741 10739 10736 10734 10731 10727 10723 10720 10717 10713 10709 10706 10703 10699 10695 10691 10687 10683 10679 10674 10669 10664 10658 10653 10647 10641 10635 10628 10621 10614 10609 10605 10604 10603 10603 10603 10603 10602 10602 10602 10602 10602 10602 10601 10601 10600 10600 10600 10600 10599 10599 10598 10598 10598 10598 10598 10598 10598 10598 10598 10598 10598 10598 10598 10598 10598
10758 10755 10753 10750 10748 10746 10744 10741 10739 10736 10734 10732 10729 10726 10723 10719 10716 10713 10709 10706 10702 10699 10695 10692 10688 10685 10681 10676 10671 10666 10660 10655 10649 10643 10637 10630 10623 10616 10610 10606 10604 10603 10603 10603 10603 10603 10603 10603 10603 10603 10603 10603 10602 10602 10602 10602 10602 10602 10601 10601 10601 10601 10601 10601 10600 10600 10600 10600 10600 10600 10600 10599 10599 10599
10756 10754 10751 10748 10746 10744 10742 10739 10736 10734 10731 10729 10727 10725 10722 10719 10715 10712 10709 10706 10702 10699 10695 10692 10689 10685 10682 10678 10673 10668 10663 10657 10652 10646 10639 10633 10626 10618 10612 10607 10605 10604 10604 10604 10604 10604 10605 10605 10605 10605 10604 10604 10604 10604 10604 10604 10604 10603 10603 10603 10603 10603 10602 10602 10602 10602 10602 10601 10601 10601 10601 10601 10601 10600